Lubbock, TX

5:23 PM CDT on April 21, 2018 (GMT -0500)
Lubbock International

Weather History for KLBB - April, 2012

Change the Weather History Date:

Friday, April 27, 2012

  Actual Average Record
Temperature  
Mean Temperature 73 °F 64 °F  
Max Temperature 89 °F 79 °F 97 °F (1996)
Min Temperature 57 °F 50 °F 27 °F (1920)
Degree Days  
Heating Degree Days 0 4  
Month to date heating degree days 52 173  
Since 1 July heating degree days 2950 3327  
Cooling Degree Days 8 3  
Month to date cooling degree days 107 41  
Year to date cooling degree days 159 48  
Growing Degree Days 23 (Base 50)    
Moisture  
Dew Point 29 °F    
Average Humidity 35    
Maximum Humidity 61    
Minimum Humidity 8    
Precipitation  
Precipitation 0.00 in 0.06 in 0.98 in (1957)
Month to date precipitation 0.88 1.23  
Year to date precipitation 2.17 3.73  
Snow  
Snow 0.00 in 0.00 in T in (2002)
Month to date snowfall 0.0 0.2  
Since 1 July snowfall 6.8 8.2  
Snow Depth 0.00 in    
Sea Level Pressure  
Sea Level Pressure 29.62 in    
Wind  
Wind Speed 18 mph (West)    
Max Wind Speed 43 mph    
Max Gust Speed 47 mph    
Visibility 8 miles    
Events      
T = Trace of Precipitation, MM = Missing Value Source: NWS Daily Summary

Daily Weather History Graph

Daily Weather History Graph

Search for Another Location

Airport or City:

Astronomy

Apr. 27, 2012 Rise Set
Actual Time 7:02 AM CDT 8:27 PM CDT
Civil Twilight 6:35 AM CDT 8:54 PM CDT
Nautical Twilight 6:04 AM CDT 9:25 PM CDT
Astronomical Twilight 5:31 AM CDT 9:58 PM CDT
Moon 11:46 AM CDT (4/27) 1:11 AM CDT (4/27)
Length of Visible Light 14h 18m
Length of Day
13h 25m
Waxing Crescent, 33% of the Moon is Illuminated
Apr 27
Waxing Crescent
Apr 29
First Quarter
May 5
Full
May 12
Last Quarter
May 20
New

Hourly Weather History & Observations

Time (CDT) Temp. Dew Point Humidity Pressure Visibility Wind Dir Wind Speed Gust Speed Precip Events Conditions
12:53 AM 71.1 °F 55.0 °F 57% 29.59 in 10.0 mi SE 17.3 mph 25.3 mph N/A   Scattered Clouds
1:53 AM 70.0 °F 55.9 °F 61% 29.59 in 10.0 mi South 10.4 mph - N/A   Mostly Cloudy
2:53 AM 69.1 °F 54.0 °F 58% 29.57 in 10.0 mi South 5.8 mph - N/A   Mostly Cloudy
3:53 AM 69.1 °F 35.1 °F 29% 29.59 in 10.0 mi WNW 15.0 mph - N/A   Mostly Cloudy
4:53 AM 64.0 °F 37.0 °F 37% 29.61 in 10.0 mi WNW 11.5 mph - N/A   Clear
5:53 AM 62.1 °F 34.0 °F 35% 29.63 in 10.0 mi NW 16.1 mph - N/A   Clear
6:53 AM 57.9 °F 33.1 °F 39% 29.65 in 10.0 mi West 6.9 mph - N/A   Clear
7:53 AM 59.0 °F 30.9 °F 35% 29.67 in 10.0 mi West 10.4 mph - N/A   Clear
8:53 AM 64.9 °F 30.9 °F 28% 29.69 in 10.0 mi WNW 18.4 mph - N/A   Clear
9:53 AM 71.1 °F 30.9 °F 23% 29.68 in 3.0 mi WNW 23.0 mph 41.4 mph N/A   Widespread Dust
10:53 AM 73.9 °F 28.9 °F 19% 29.67 in 5.0 mi WNW 33.4 mph 42.6 mph N/A   Widespread Dust
11:30 AM 77.0 °F 26.6 °F 16% 29.80 in 2.5 mi West 35.7 mph 47.2 mph N/A   Widespread Dust
11:41 AM 77.0 °F 26.6 °F 16% 29.80 in 3.0 mi West 34.5 mph 44.9 mph N/A   Widespread Dust
11:53 AM 79.0 °F 26.1 °F 14% 29.64 in 2.0 mi West 34.5 mph 47.2 mph N/A   Widespread Dust
12:53 PM 82.0 °F 23.0 °F 11% 29.62 in 3.0 mi West 38.0 mph 46.0 mph N/A   Widespread Dust
1:53 PM 84.9 °F 23.0 °F 10% 29.60 in 5.0 mi West 34.5 mph 44.9 mph N/A   Widespread Dust
2:53 PM 87.1 °F 23.0 °F 10% 29.59 in 7.0 mi West 27.6 mph 41.4 mph N/A   Clear
3:53 PM 89.1 °F 23.0 °F 9% 29.57 in 8.0 mi West 26.5 mph 38.0 mph N/A   Clear
4:53 PM 88.0 °F 21.0 °F 9% 29.57 in 10.0 mi West 25.3 mph 34.5 mph N/A   Clear
5:53 PM 88.0 °F 19.0 °F 8% 29.57 in 10.0 mi West 26.5 mph 33.4 mph N/A   Clear
6:53 PM 88.0 °F 19.0 °F 8% 29.58 in 10.0 mi West 18.4 mph 26.5 mph N/A   Clear
7:53 PM 84.9 °F 18.0 °F 8% 29.57 in 10.0 mi WSW 11.5 mph - N/A   Clear
8:53 PM 75.9 °F 18.0 °F 11% 29.58 in 10.0 mi West 10.4 mph - N/A   Partly Cloudy
9:53 PM 70.0 °F 19.9 °F 15% 29.61 in 10.0 mi West 6.9 mph - N/A   Clear
10:53 PM 69.1 °F 19.9 °F 15% 29.62 in 10.0 mi SW 5.8 mph - N/A   Clear
11:53 PM 64.9 °F 21.0 °F 19% 29.63 in 10.0 mi West 6.9 mph - N/A   Clear